This is the latest recevied weather packets stored in our database for station/object KB1JLI. If no packets are shown the sender has not sent any weather packets the latest 10 day(s).
| Time | Temp. | Humidity | Pressure | Rain* | Wind** | Luminosity | Snow |
|---|---|---|---|---|---|---|---|
| 1777058704 | 10.56° C | 47% | 1010.3 hPa | 0 mm | - | 187 W/m² | - |
| 1777058401 | 11.11° C | 47% | 1010.3 hPa | 0 mm | - | 314 W/m² | - |
| 1777058097 | 11.67° C | 45% | 1010.4 hPa | 0 mm | - | 223 W/m² | - |
| 1777057792 | 11.67° C | 43% | 1010.3 hPa | 0 mm | - | 632 W/m² | - |
| 1777057487 | 11.11° C | 45% | 1010.3 hPa | 0 mm | - | 441 W/m² | - |
| 1777057183 | 11.67° C | 44% | 1010.3 hPa | 0 mm | - | 217 W/m² | - |
| 1777056879 | 10.56° C | 46% | 1010.2 hPa | 0 mm | - | 295 W/m² | - |
| 1777056578 | 10.56° C | 47% | 1010.1 hPa | 0 mm | - | 203 W/m² | - |
| 1777056273 | 11.11° C | 46% | 1010.3 hPa | 0 mm | - | 224 W/m² | - |
| 1777055970 | 11.67° C | 46% | 1010.1 hPa | 0 mm | - | 209 W/m² | - |
| 1777055668 | 11.67° C | 41% | 1010.1 hPa | 0 mm | - | 273 W/m² | - |
| 1777055362 | 11.11° C | 38% | 1010 hPa | 0 mm | - | 248 W/m² | - |
| 1777055062 | 11.67° C | 36% | 1009.9 hPa | 0 mm | - | 233 W/m² | - |
| 1777054756 | 11.67° C | 37% | 1009.9 hPa | 0 mm | - | 239 W/m² | - |
| 1777054453 | 11.67° C | 39% | 1010.1 hPa | 0 mm | - | 268 W/m² | - |
| 1777054152 | 11.11° C | 39% | 1009.9 hPa | 0 mm | - | 195 W/m² | - |
| 1777053843 | 11.11° C | 38% | 1009.9 hPa | 0 mm | - | 170 W/m² | - |
| 1777053538 | 11.67° C | 39% | 1010 hPa | 0 mm | - | 211 W/m² | - |
| 1777053233 | 11.11° C | 38% | 1010.1 hPa | 0 mm | - | 196 W/m² | - |
| 1777052929 | 11.11° C | 39% | 1010.3 hPa | 0 mm | - | 250 W/m² | - |
| 1777052625 | 11.67° C | 38% | 1010.1 hPa | 0 mm | - | 289 W/m² | - |
| 1777052320 | 11.67° C | 39% | 1010.1 hPa | 0 mm | - | 227 W/m² | - |
| 1777052016 | 11.11° C | 41% | 1009.9 hPa | 0 mm | - | 234 W/m² | - |
| 1777051714 | 11.11° C | 39% | 1010.1 hPa | 0 mm | - | 215 W/m² | - |
| 1777051409 | 11.67° C | 40% | 1010.1 hPa | 0 mm | - | 224 W/m² | - |
* Rain latest hour (hover to see other rain measurements)
** Current wind speed in m/s (hover to see current wind gust speed)